owner,sensor,date,latitude,longitude,vertical_datum,sea_water_temperature,qcFlag
Anadarko,ioos:station:wmo:42398:1,2021-02-01T00:10:00Z,26.1322,-92.0403,100.6,20.8,11111222
Anadarko,ioos:station:wmo:42398:1,2021-02-01T00:30:00Z,26.1322,-92.0403,100.6,20.7,11111222
Anadarko,ioos:station:wmo:42398:1,2021-02-01T00:50:00Z,26.1322,-92.0403,100.6,20.7,11111222
Anadarko,ioos:station:wmo:42398:1,2021-02-01T01:09:00Z,26.1322,-92.0403,100.6,20.7,11111222
Anadarko,ioos:station:wmo:42398:1,2021-02-01T01:29:00Z,26.1322,-92.0403,100.6,20.7,11111222
Anadarko,ioos:station:wmo:42398:1,2021-02-01T01:49:00Z,26.1322,-92.0403,100.6,20.7,11111222
Anadarko,ioos:station:wmo:42398:1,2021-02-01T02:09:00Z,26.1322,-92.0403,100.6,20.7,11111222
Anadarko,ioos:station:wmo:42398:1,2021-02-01T02:29:00Z,26.1322,-92.0403,100.6,20.7,11111222
Anadarko,ioos:station:wmo:42398:1,2021-02-01T02:49:00Z,26.1322,-92.0403,100.6,20.7,11111222
Anadarko,ioos:station:wmo:42398:1,2021-02-01T03:09:00Z,26.1322,-92.0403,100.6,20.8,11111222
Anadarko,ioos:station:wmo:42398:1,2021-02-01T03:29:00Z,26.1322,-92.0403,100.6,20.7,11111222
Anadarko,ioos:station:wmo:42398:1,2021-02-01T03:49:00Z,26.1322,-92.0403,100.6,20.8,11111222
Anadarko,ioos:station:wmo:42398:1,2021-02-01T04:09:00Z,26.1322,-92.0403,100.6,20.8,11111222
Anadarko,ioos:station:wmo:42398:1,2021-02-01T04:29:00Z,26.1322,-92.0403,100.6,20.9,11111222
Anadarko,ioos:station:wmo:42398:1,2021-02-01T04:49:00Z,26.1322,-92.0403,100.6,20.9,11111222
Anadarko,ioos:station:wmo:42398:1,2021-02-01T05:09:00Z,26.1322,-92.0403,100.6,21.0,11111222
Anadarko,ioos:station:wmo:42398:1,2021-02-01T05:29:00Z,26.1322,-92.0403,100.6,21.0,11111222
Anadarko,ioos:station:wmo:42398:1,2021-02-01T05:49:00Z,26.1322,-92.0403,100.6,21.0,11111222
Anadarko,ioos:station:wmo:42398:1,2021-02-01T06:09:00Z,26.1322,-92.0403,100.6,21.0,11111222
Anadarko,ioos:station:wmo:42398:1,2021-02-01T06:29:00Z,26.1322,-92.0403,100.6,21.0,11111222
Anadarko,ioos:station:wmo:42398:1,2021-02-01T06:49:00Z,26.1322,-92.0403,100.6,21.0,11111222
Anadarko,ioos:station:wmo:42398:1,2021-02-01T07:09:00Z,26.1322,-92.0403,100.6,21.0,11111222
Anadarko,ioos:station:wmo:42398:1,2021-02-01T07:29:00Z,26.1322,-92.0403,100.6,21.0,11111222
Anadarko,ioos:station:wmo:42398:1,2021-02-01T07:49:00Z,26.1322,-92.0403,100.6,21.0,11111222
Anadarko,ioos:station:wmo:42398:1,2021-02-01T08:09:00Z,26.1322,-92.0403,100.6,21.0,11111222
Anadarko,ioos:station:wmo:42398:1,2021-02-01T08:29:00Z,26.1322,-92.0403,100.6,21.0,11111222
Anadarko,ioos:station:wmo:42398:1,2021-02-01T08:49:00Z,26.1322,-92.0403,100.6,21.0,11111222
Anadarko,ioos:station:wmo:42398:1,2021-02-01T09:09:00Z,26.1322,-92.0403,100.6,21.0,11111222
Anadarko,ioos:station:wmo:42398:1,2021-02-01T09:29:00Z,26.1322,-92.0403,100.6,21.0,11111222
Anadarko,ioos:station:wmo:42398:1,2021-02-01T09:49:00Z,26.1322,-92.0403,100.6,21.0,11111222
Anadarko,ioos:station:wmo:42398:1,2021-02-01T10:09:00Z,26.1322,-92.0403,100.6,20.9,11111222
Anadarko,ioos:station:wmo:42398:1,2021-02-01T10:29:00Z,26.1322,-92.0403,100.6,20.9,11111222
Anadarko,ioos:station:wmo:42398:1,2021-02-01T10:49:00Z,26.1322,-92.0403,100.6,20.9,11111222
Anadarko,ioos:station:wmo:42398:1,2021-02-01T11:09:00Z,26.1322,-92.0403,100.6,20.9,11111222
Anadarko,ioos:station:wmo:42398:1,2021-02-01T11:29:00Z,26.1322,-92.0403,100.6,20.9,11111222
Anadarko,ioos:station:wmo:42398:1,2021-02-01T11:49:00Z,26.1322,-92.0403,100.6,20.8,11111222
Anadarko,ioos:station:wmo:42398:1,2021-02-01T12:09:00Z,26.1322,-92.0403,100.6,20.8,11111222
Anadarko,ioos:station:wmo:42398:1,2021-02-01T12:29:00Z,26.1322,-92.0403,100.6,20.8,11111222
Anadarko,ioos:station:wmo:42398:1,2021-02-01T12:49:00Z,26.1322,-92.0403,100.6,20.8,11111222
Anadarko,ioos:station:wmo:42398:1,2021-02-01T13:08:00Z,26.1322,-92.0403,100.6,20.8,11111222
Anadarko,ioos:station:wmo:42398:1,2021-02-01T13:28:00Z,26.1322,-92.0403,100.6,20.8,11111222
Anadarko,ioos:station:wmo:42398:1,2021-02-01T13:48:00Z,26.1322,-92.0403,100.6,20.8,11111222
Anadarko,ioos:station:wmo:42398:1,2021-02-01T14:08:00Z,26.1322,-92.0403,100.6,20.8,11111222
Anadarko,ioos:station:wmo:42398:1,2021-02-01T14:28:00Z,26.1322,-92.0403,100.6,20.7,11111222
Anadarko,ioos:station:wmo:42398:1,2021-02-01T14:47:00Z,26.1322,-92.0403,100.6,20.8,11111222
Anadarko,ioos:station:wmo:42398:1,2021-02-01T15:06:00Z,26.1322,-92.0403,100.6,20.8,11111222
Anadarko,ioos:station:wmo:42398:1,2021-02-01T15:25:00Z,26.1322,-92.0403,100.6,20.8,11111222
Anadarko,ioos:station:wmo:42398:1,2021-02-01T15:45:00Z,26.1322,-92.0403,100.6,20.7,11111222
Anadarko,ioos:station:wmo:42398:1,2021-02-01T16:05:00Z,26.1322,-92.0403,100.6,20.8,11111222
Anadarko,ioos:station:wmo:42398:1,2021-02-01T16:25:00Z,26.1322,-92.0403,100.6,20.7,11111222
Anadarko,ioos:station:wmo:42398:1,2021-02-01T16:45:00Z,26.1322,-92.0403,100.6,20.8,11111222
Anadarko,ioos:station:wmo:42398:1,2021-02-01T17:05:00Z,26.1322,-92.0403,100.6,20.8,11111222
Anadarko,ioos:station:wmo:42398:1,2021-02-01T17:25:00Z,26.1322,-92.0403,100.6,20.7,11111222
Anadarko,ioos:station:wmo:42398:1,2021-02-01T17:45:00Z,26.1322,-92.0403,100.6,20.8,11111222
Anadarko,ioos:station:wmo:42398:1,2021-02-01T18:05:00Z,26.1322,-92.0403,100.6,20.8,11111222
Anadarko,ioos:station:wmo:42398:1,2021-02-01T18:25:00Z,26.1322,-92.0403,100.6,20.8,11111222
Anadarko,ioos:station:wmo:42398:1,2021-02-01T18:45:00Z,26.1322,-92.0403,100.6,20.8,11111222
Anadarko,ioos:station:wmo:42398:1,2021-02-01T19:05:00Z,26.1322,-92.0403,100.6,20.8,11111222
Anadarko,ioos:station:wmo:42398:1,2021-02-01T19:25:00Z,26.1322,-92.0403,100.6,20.9,11111222
Anadarko,ioos:station:wmo:42398:1,2021-02-01T19:45:00Z,26.1322,-92.0403,100.6,20.9,11111222
Anadarko,ioos:station:wmo:42398:1,2021-02-01T20:05:00Z,26.1322,-92.0403,100.6,20.9,11111222
Anadarko,ioos:station:wmo:42398:1,2021-02-01T20:25:00Z,26.1322,-92.0403,100.6,21.0,11111222
Anadarko,ioos:station:wmo:42398:1,2021-02-01T20:45:00Z,26.1322,-92.0403,100.6,21.0,11111222
Anadarko,ioos:station:wmo:42398:1,2021-02-01T21:05:00Z,26.1322,-92.0403,100.6,21.0,11111222
Anadarko,ioos:station:wmo:42398:1,2021-02-01T21:25:00Z,26.1322,-92.0403,100.6,20.9,11111222
Anadarko,ioos:station:wmo:42398:1,2021-02-01T21:45:00Z,26.1322,-92.0403,100.6,20.9,11111222
Anadarko,ioos:station:wmo:42398:1,2021-02-01T22:05:00Z,26.1322,-92.0403,100.6,20.9,11111222
Anadarko,ioos:station:wmo:42398:1,2021-02-01T22:25:00Z,26.1322,-92.0403,100.6,20.9,11111222
Anadarko,ioos:station:wmo:42398:1,2021-02-01T22:44:00Z,26.1322,-92.0403,100.6,20.8,11111222
Anadarko,ioos:station:wmo:42398:1,2021-02-01T23:04:00Z,26.1322,-92.0403,100.6,20.8,11111222
Anadarko,ioos:station:wmo:42398:1,2021-02-01T23:24:00Z,26.1322,-92.0403,100.6,20.8,11111222
Anadarko,ioos:station:wmo:42398:1,2021-02-01T23:44:00Z,26.1322,-92.0403,100.6,20.8,11111222
Anadarko,ioos:station:wmo:42398:1,2021-02-02T00:04:00Z,26.1322,-92.0403,100.6,20.8,11111222
Anadarko,ioos:station:wmo:42398:1,2021-02-02T00:24:00Z,26.1322,-92.0403,100.6,20.8,11111222
Anadarko,ioos:station:wmo:42398:1,2021-02-02T00:44:00Z,26.1322,-92.0403,100.6,20.7,11111222
Anadarko,ioos:station:wmo:42398:1,2021-02-02T01:04:00Z,26.1322,-92.0403,100.6,20.7,11111222
Anadarko,ioos:station:wmo:42398:1,2021-02-02T01:24:00Z,26.1322,-92.0403,100.6,20.8,11111222
Anadarko,ioos:station:wmo:42398:1,2021-02-02T01:44:00Z,26.1322,-92.0403,100.6,20.8,11111222
Anadarko,ioos:station:wmo:42398:1,2021-02-02T02:04:00Z,26.1322,-92.0403,100.6,20.8,11111222
Anadarko,ioos:station:wmo:42398:1,2021-02-02T02:23:00Z,26.1322,-92.0403,100.6,20.8,11111222
Anadarko,ioos:station:wmo:42398:1,2021-02-02T02:43:00Z,26.1322,-92.0403,100.6,20.8,11111222
Anadarko,ioos:station:wmo:42398:1,2021-02-02T03:03:00Z,26.1322,-92.0403,100.6,20.8,11111222
Anadarko,ioos:station:wmo:42398:1,2021-02-02T03:23:00Z,26.1322,-92.0403,100.6,20.8,11111222
Anadarko,ioos:station:wmo:42398:1,2021-02-02T03:43:00Z,26.1322,-92.0403,100.6,20.8,11111222
Anadarko,ioos:station:wmo:42398:1,2021-02-02T04:03:00Z,26.1322,-92.0403,100.6,20.8,11111222
Anadarko,ioos:station:wmo:42398:1,2021-02-02T04:23:00Z,26.1322,-92.0403,100.6,20.8,11111222
Anadarko,ioos:station:wmo:42398:1,2021-02-02T04:42:00Z,26.1322,-92.0403,100.6,20.8,11111222
Anadarko,ioos:station:wmo:42398:1,2021-02-02T05:02:00Z,26.1322,-92.0403,100.6,20.8,11111222
Anadarko,ioos:station:wmo:42398:1,2021-02-02T05:22:00Z,26.1322,-92.0403,100.6,20.8,11111222
Anadarko,ioos:station:wmo:42398:1,2021-02-02T05:42:00Z,26.1322,-92.0403,100.6,20.8,11111222
Anadarko,ioos:station:wmo:42398:1,2021-02-02T06:02:00Z,26.1322,-92.0403,100.6,20.8,11111222
Anadarko,ioos:station:wmo:42398:1,2021-02-02T06:22:00Z,26.1322,-92.0403,100.6,20.8,11111222
Anadarko,ioos:station:wmo:42398:1,2021-02-02T06:42:00Z,26.1322,-92.0403,100.6,20.8,11111222
Anadarko,ioos:station:wmo:42398:1,2021-02-02T07:01:00Z,26.1322,-92.0403,100.6,20.8,11111222
Anadarko,ioos:station:wmo:42398:1,2021-02-02T07:21:00Z,26.1322,-92.0403,100.6,20.8,11111222
Anadarko,ioos:station:wmo:42398:1,2021-02-02T07:41:00Z,26.1322,-92.0403,100.6,20.8,11111222
Anadarko,ioos:station:wmo:42398:1,2021-02-02T08:01:00Z,26.1322,-92.0403,100.6,20.8,11111222
Anadarko,ioos:station:wmo:42398:1,2021-02-02T08:21:00Z,26.1322,-92.0403,100.6,20.8,11111222
Anadarko,ioos:station:wmo:42398:1,2021-02-02T08:41:00Z,26.1322,-92.0403,100.6,20.8,11111222
Anadarko,ioos:station:wmo:42398:1,2021-02-02T09:01:00Z,26.1322,-92.0403,100.6,20.8,11111222
Anadarko,ioos:station:wmo:42398:1,2021-02-02T09:21:00Z,26.1322,-92.0403,100.6,20.8,11111222
Anadarko,ioos:station:wmo:42398:1,2021-02-02T09:41:00Z,26.1322,-92.0403,100.6,20.8,11111222
Anadarko,ioos:station:wmo:42398:1,2021-02-02T10:01:00Z,26.1322,-92.0403,100.6,20.9,11111222
Anadarko,ioos:station:wmo:42398:1,2021-02-02T10:21:00Z,26.1322,-92.0403,100.6,20.8,11111222
Anadarko,ioos:station:wmo:42398:1,2021-02-02T10:41:00Z,26.1322,-92.0403,100.6,20.8,11111222
Anadarko,ioos:station:wmo:42398:1,2021-02-02T11:01:00Z,26.1322,-92.0403,100.6,20.8,11111222
Anadarko,ioos:station:wmo:42398:1,2021-02-02T11:21:00Z,26.1322,-92.0403,100.6,20.9,11111222
Anadarko,ioos:station:wmo:42398:1,2021-02-02T11:41:00Z,26.1322,-92.0403,100.6,20.8,11111222
Anadarko,ioos:station:wmo:42398:1,2021-02-02T12:00:00Z,26.1322,-92.0403,100.6,20.8,11111222
Anadarko,ioos:station:wmo:42398:1,2021-02-02T12:19:00Z,26.1322,-92.0403,100.6,20.9,11111222
Anadarko,ioos:station:wmo:42398:1,2021-02-02T12:39:00Z,26.1322,-92.0403,100.6,20.9,11111222
Anadarko,ioos:station:wmo:42398:1,2021-02-02T12:59:00Z,26.1322,-92.0403,100.6,20.8,11111222
Anadarko,ioos:station:wmo:42398:1,2021-02-02T13:19:00Z,26.1322,-92.0403,100.6,20.8,11111222
Anadarko,ioos:station:wmo:42398:1,2021-02-02T13:39:00Z,26.1322,-92.0403,100.6,20.9,11111222
Anadarko,ioos:station:wmo:42398:1,2021-02-02T13:59:00Z,26.1322,-92.0403,100.6,20.8,11111222
Anadarko,ioos:station:wmo:42398:1,2021-02-02T14:19:00Z,26.1322,-92.0403,100.6,20.8,11111222
Anadarko,ioos:station:wmo:42398:1,2021-02-02T14:39:00Z,26.1322,-92.0403,100.6,20.8,11111222
Anadarko,ioos:station:wmo:42398:1,2021-02-02T14:59:00Z,26.1322,-92.0403,100.6,20.8,11111222
Anadarko,ioos:station:wmo:42398:1,2021-02-02T15:19:00Z,26.1322,-92.0403,100.6,20.8,11111222
Anadarko,ioos:station:wmo:42398:1,2021-02-02T15:39:00Z,26.1322,-92.0403,100.6,20.8,11111222
Anadarko,ioos:station:wmo:42398:1,2021-02-02T15:59:00Z,26.1322,-92.0403,100.6,20.8,11111222
Anadarko,ioos:station:wmo:42398:1,2021-02-02T16:19:00Z,26.1322,-92.0403,100.6,20.8,11111222
Anadarko,ioos:station:wmo:42398:1,2021-02-02T16:39:00Z,26.1322,-92.0403,100.6,20.9,11111222
Anadarko,ioos:station:wmo:42398:1,2021-02-02T16:59:00Z,26.1322,-92.0403,100.6,20.9,11111222
Anadarko,ioos:station:wmo:42398:1,2021-02-02T17:19:00Z,26.1322,-92.0403,100.6,20.9,11111222
Anadarko,ioos:station:wmo:42398:1,2021-02-02T17:39:00Z,26.1322,-92.0403,100.6,20.8,11111222
Anadarko,ioos:station:wmo:42398:1,2021-02-02T17:59:00Z,26.1322,-92.0403,100.6,20.8,11111222
Anadarko,ioos:station:wmo:42398:1,2021-02-02T18:19:00Z,26.1322,-92.0403,100.6,20.8,11111222
Anadarko,ioos:station:wmo:42398:1,2021-02-02T18:39:00Z,26.1322,-92.0403,100.6,20.8,11111222
Anadarko,ioos:station:wmo:42398:1,2021-02-02T18:59:00Z,26.1322,-92.0403,100.6,20.8,11111222
Anadarko,ioos:station:wmo:42398:1,2021-02-02T19:18:00Z,26.1322,-92.0403,100.6,20.8,11111222
Anadarko,ioos:station:wmo:42398:1,2021-02-02T19:37:00Z,26.1322,-92.0403,100.6,20.8,11111222
Anadarko,ioos:station:wmo:42398:1,2021-02-02T19:57:00Z,26.1322,-92.0403,100.6,20.8,11111222
Anadarko,ioos:station:wmo:42398:1,2021-02-02T20:17:00Z,26.1322,-92.0403,100.6,20.8,11111222
Anadarko,ioos:station:wmo:42398:1,2021-02-02T20:37:00Z,26.1322,-92.0403,100.6,20.8,11111222
Anadarko,ioos:station:wmo:42398:1,2021-02-02T20:57:00Z,26.1322,-92.0403,100.6,20.8,11111222
Anadarko,ioos:station:wmo:42398:1,2021-02-02T21:17:00Z,26.1322,-92.0403,100.6,20.8,11111222
Anadarko,ioos:station:wmo:42398:1,2021-02-02T21:37:00Z,26.1322,-92.0403,100.6,20.8,11111222
Anadarko,ioos:station:wmo:42398:1,2021-02-02T21:57:00Z,26.1322,-92.0403,100.6,20.8,11111222
Anadarko,ioos:station:wmo:42398:1,2021-02-02T22:17:00Z,26.1322,-92.0403,100.6,20.7,11111222
Anadarko,ioos:station:wmo:42398:1,2021-02-02T22:37:00Z,26.1322,-92.0403,100.6,20.7,11111222
Anadarko,ioos:station:wmo:42398:1,2021-02-02T22:57:00Z,26.1322,-92.0403,100.6,20.8,11111222
Anadarko,ioos:station:wmo:42398:1,2021-02-02T23:17:00Z,26.1322,-92.0403,100.6,20.8,11111222
Anadarko,ioos:station:wmo:42398:1,2021-02-02T23:37:00Z,26.1322,-92.0403,100.6,20.8,11111222
Anadarko,ioos:station:wmo:42398:1,2021-02-02T23:56:00Z,26.1322,-92.0403,100.6,20.7,11111222
Anadarko,ioos:station:wmo:42398:1,2021-02-03T00:16:00Z,26.1322,-92.0403,100.6,20.7,11111222
Anadarko,ioos:station:wmo:42398:1,2021-02-03T00:36:00Z,26.1322,-92.0403,100.6,20.7,11111222
Anadarko,ioos:station:wmo:42398:1,2021-02-03T00:55:00Z,26.1322,-92.0403,100.6,20.7,11111222
Anadarko,ioos:station:wmo:42398:1,2021-02-03T01:15:00Z,26.1322,-92.0403,100.6,20.7,11111222
Anadarko,ioos:station:wmo:42398:1,2021-02-03T01:35:00Z,26.1322,-92.0403,100.6,20.7,11111222
Anadarko,ioos:station:wmo:42398:1,2021-02-03T01:55:00Z,26.1322,-92.0403,100.6,20.8,11111222
Anadarko,ioos:station:wmo:42398:1,2021-02-03T02:15:00Z,26.1322,-92.0403,100.6,20.9,11111222
Anadarko,ioos:station:wmo:42398:1,2021-02-03T02:34:00Z,26.1322,-92.0403,100.6,21.0,11111222
Anadarko,ioos:station:wmo:42398:1,2021-02-03T02:54:00Z,26.1322,-92.0403,100.6,21.1,11111222
Anadarko,ioos:station:wmo:42398:1,2021-02-03T03:14:00Z,26.1322,-92.0403,100.6,21.1,11111222
Anadarko,ioos:station:wmo:42398:1,2021-02-03T03:34:00Z,26.1322,-92.0403,100.6,21.2,11111222
Anadarko,ioos:station:wmo:42398:1,2021-02-03T03:54:00Z,26.1322,-92.0403,100.6,21.2,11111222
Anadarko,ioos:station:wmo:42398:1,2021-02-03T04:13:00Z,26.1322,-92.0403,100.6,21.2,11111222
Anadarko,ioos:station:wmo:42398:1,2021-02-03T04:33:00Z,26.1322,-92.0403,100.6,21.2,11111222
Anadarko,ioos:station:wmo:42398:1,2021-02-03T04:52:00Z,26.1322,-92.0403,100.6,21.3,11111222
Anadarko,ioos:station:wmo:42398:1,2021-02-03T05:12:00Z,26.1322,-92.0403,100.6,21.3,11111222
Anadarko,ioos:station:wmo:42398:1,2021-02-03T05:32:00Z,26.1322,-92.0403,100.6,21.3,11111222
Anadarko,ioos:station:wmo:42398:1,2021-02-03T05:52:00Z,26.1322,-92.0403,100.6,21.3,11111222
Anadarko,ioos:station:wmo:42398:1,2021-02-03T06:12:00Z,26.1322,-92.0403,100.6,21.3,11111222
Anadarko,ioos:station:wmo:42398:1,2021-02-03T06:32:00Z,26.1322,-92.0403,100.6,21.3,11111222
Anadarko,ioos:station:wmo:42398:1,2021-02-03T06:52:00Z,26.1322,-92.0403,100.6,21.3,11111222
Anadarko,ioos:station:wmo:42398:1,2021-02-03T07:12:00Z,26.1322,-92.0403,100.6,21.4,11111222
Anadarko,ioos:station:wmo:42398:1,2021-02-03T07:32:00Z,26.1322,-92.0403,100.6,21.4,11111222
Anadarko,ioos:station:wmo:42398:1,2021-02-03T07:52:00Z,26.1322,-92.0403,100.6,21.4,11111222
Anadarko,ioos:station:wmo:42398:1,2021-02-03T08:12:00Z,26.1322,-92.0403,100.6,21.4,11111222
Anadarko,ioos:station:wmo:42398:1,2021-02-03T08:32:00Z,26.1322,-92.0403,100.6,21.4,11111222
Anadarko,ioos:station:wmo:42398:1,2021-02-03T08:52:00Z,26.1322,-92.0403,100.6,21.4,11111222
Anadarko,ioos:station:wmo:42398:1,2021-02-03T09:12:00Z,26.1322,-92.0403,100.6,21.4,11111222
Anadarko,ioos:station:wmo:42398:1,2021-02-03T09:32:00Z,26.1322,-92.0403,100.6,21.4,11111222
Anadarko,ioos:station:wmo:42398:1,2021-02-03T09:52:00Z,26.1322,-92.0403,100.6,21.4,11111222
Anadarko,ioos:station:wmo:42398:1,2021-02-03T10:12:00Z,26.1322,-92.0403,100.6,21.4,11111222
Anadarko,ioos:station:wmo:42398:1,2021-02-03T10:32:00Z,26.1322,-92.0403,100.6,21.4,11111222
Anadarko,ioos:station:wmo:42398:1,2021-02-03T10:52:00Z,26.1322,-92.0403,100.6,21.4,11111222
Anadarko,ioos:station:wmo:42398:1,2021-02-03T11:12:00Z,26.1322,-92.0403,100.6,21.4,11111222
Anadarko,ioos:station:wmo:42398:1,2021-02-03T11:31:00Z,26.1322,-92.0403,100.6,21.4,11111222
Anadarko,ioos:station:wmo:42398:1,2021-02-03T11:51:00Z,26.1322,-92.0403,100.6,21.4,11111222
Anadarko,ioos:station:wmo:42398:1,2021-02-03T12:11:00Z,26.1322,-92.0403,100.6,21.4,11111222
Anadarko,ioos:station:wmo:42398:1,2021-02-03T12:31:00Z,26.1322,-92.0403,100.6,21.4,11111222
Anadarko,ioos:station:wmo:42398:1,2021-02-03T12:50:00Z,26.1322,-92.0403,100.6,21.4,11111222
Anadarko,ioos:station:wmo:42398:1,2021-02-03T13:10:00Z,26.1322,-92.0403,100.6,21.4,11111222
Anadarko,ioos:station:wmo:42398:1,2021-02-03T13:30:00Z,26.1322,-92.0403,100.6,21.4,11111222
Anadarko,ioos:station:wmo:42398:1,2021-02-03T13:49:00Z,26.1322,-92.0403,100.6,21.4,11111222
Anadarko,ioos:station:wmo:42398:1,2021-02-03T14:09:00Z,26.1322,-92.0403,100.6,21.4,11111222
Anadarko,ioos:station:wmo:42398:1,2021-02-03T14:29:00Z,26.1322,-92.0403,100.6,21.4,11111222
Anadarko,ioos:station:wmo:42398:1,2021-02-03T14:49:00Z,26.1322,-92.0403,100.6,21.4,11111222
Anadarko,ioos:station:wmo:42398:1,2021-02-03T15:09:00Z,26.1322,-92.0403,100.6,21.4,11111222
Anadarko,ioos:station:wmo:42398:1,2021-02-03T15:29:00Z,26.1322,-92.0403,100.6,21.4,11111222
Anadarko,ioos:station:wmo:42398:1,2021-02-03T15:49:00Z,26.1322,-92.0403,100.6,21.4,11111222
Anadarko,ioos:station:wmo:42398:1,2021-02-03T16:09:00Z,26.1322,-92.0403,100.6,21.4,11111222
Anadarko,ioos:station:wmo:42398:1,2021-02-03T16:29:00Z,26.1322,-92.0403,100.6,21.4,11111222
Anadarko,ioos:station:wmo:42398:1,2021-02-03T16:49:00Z,26.1322,-92.0403,100.6,21.4,11111222
Anadarko,ioos:station:wmo:42398:1,2021-02-03T17:09:00Z,26.1322,-92.0403,100.6,21.4,11111222
Anadarko,ioos:station:wmo:42398:1,2021-02-03T17:29:00Z,26.1322,-92.0403,100.6,21.4,11111222
Anadarko,ioos:station:wmo:42398:1,2021-02-03T17:48:00Z,26.1322,-92.0403,100.6,21.4,11111222
Anadarko,ioos:station:wmo:42398:1,2021-02-03T18:08:00Z,26.1322,-92.0403,100.6,21.4,11111222
Anadarko,ioos:station:wmo:42398:1,2021-02-03T18:28:00Z,26.1322,-92.0403,100.6,21.4,11111222
Anadarko,ioos:station:wmo:42398:1,2021-02-03T18:48:00Z,26.1322,-92.0403,100.6,21.4,11111222
Anadarko,ioos:station:wmo:42398:1,2021-02-03T19:08:00Z,26.1322,-92.0403,100.6,21.4,11111222
Anadarko,ioos:station:wmo:42398:1,2021-02-03T19:27:00Z,26.1322,-92.0403,100.6,21.4,11111222
Anadarko,ioos:station:wmo:42398:1,2021-02-03T19:47:00Z,26.1322,-92.0403,100.6,21.4,11111222
Anadarko,ioos:station:wmo:42398:1,2021-02-03T20:07:00Z,26.1322,-92.0403,100.6,21.4,11111222
Anadarko,ioos:station:wmo:42398:1,2021-02-03T20:27:00Z,26.1322,-92.0403,100.6,21.4,11111222
Anadarko,ioos:station:wmo:42398:1,2021-02-03T20:47:00Z,26.1322,-92.0403,100.6,21.4,11111222
Anadarko,ioos:station:wmo:42398:1,2021-02-03T21:07:00Z,26.1322,-92.0403,100.6,21.4,11111222
Anadarko,ioos:station:wmo:42398:1,2021-02-03T21:27:00Z,26.1322,-92.0403,100.6,21.4,11111222
Anadarko,ioos:station:wmo:42398:1,2021-02-03T21:47:00Z,26.1322,-92.0403,100.6,21.4,11111222
Anadarko,ioos:station:wmo:42398:1,2021-02-03T22:07:00Z,26.1322,-92.0403,100.6,21.4,11111222
Anadarko,ioos:station:wmo:42398:1,2021-02-03T22:27:00Z,26.1322,-92.0403,100.6,21.4,11111222
Anadarko,ioos:station:wmo:42398:1,2021-02-03T22:47:00Z,26.1322,-92.0403,100.6,21.4,11111222
Anadarko,ioos:station:wmo:42398:1,2021-02-03T23:07:00Z,26.1322,-92.0403,100.6,21.4,11111222
Anadarko,ioos:station:wmo:42398:1,2021-02-03T23:27:00Z,26.1322,-92.0403,100.6,21.4,11111222
Anadarko,ioos:station:wmo:42398:1,2021-02-03T23:47:00Z,26.1322,-92.0403,100.6,21.4,11111222
Anadarko,ioos:station:wmo:42398:1,2021-02-04T00:07:00Z,26.1322,-92.0403,100.6,21.4,11111222
Anadarko,ioos:station:wmo:42398:1,2021-02-04T00:27:00Z,26.1322,-92.0403,100.6,21.4,11111222
Anadarko,ioos:station:wmo:42398:1,2021-02-04T00:46:00Z,26.1322,-92.0403,100.6,21.4,11111222
Anadarko,ioos:station:wmo:42398:1,2021-02-04T01:06:00Z,26.1322,-92.0403,100.6,21.4,11111222
Anadarko,ioos:station:wmo:42398:1,2021-02-04T01:26:00Z,26.1322,-92.0403,100.6,21.4,11111222
Anadarko,ioos:station:wmo:42398:1,2021-02-04T01:46:00Z,26.1322,-92.0403,100.6,21.4,11111222
Anadarko,ioos:station:wmo:42398:1,2021-02-04T02:06:00Z,26.1322,-92.0403,100.6,21.4,11111222
Anadarko,ioos:station:wmo:42398:1,2021-02-04T02:26:00Z,26.1322,-92.0403,100.6,21.4,11111222
Anadarko,ioos:station:wmo:42398:1,2021-02-04T02:46:00Z,26.1322,-92.0403,100.6,21.4,11111222
Anadarko,ioos:station:wmo:42398:1,2021-02-04T03:06:00Z,26.1322,-92.0403,100.6,21.4,11111222
Anadarko,ioos:station:wmo:42398:1,2021-02-04T03:25:00Z,26.1322,-92.0403,100.6,21.4,11111222
Anadarko,ioos:station:wmo:42398:1,2021-02-04T03:45:00Z,26.1322,-92.0403,100.6,21.4,11111222
Anadarko,ioos:station:wmo:42398:1,2021-02-04T04:05:00Z,26.1322,-92.0403,100.6,21.4,11111222
Anadarko,ioos:station:wmo:42398:1,2021-02-04T04:25:00Z,26.1322,-92.0403,100.6,21.4,11111222
Anadarko,ioos:station:wmo:42398:1,2021-02-04T04:45:00Z,26.1322,-92.0403,100.6,21.4,11111222
Anadarko,ioos:station:wmo:42398:1,2021-02-04T05:05:00Z,26.1322,-92.0403,100.6,21.4,11111222
Anadarko,ioos:station:wmo:42398:1,2021-02-04T05:25:00Z,26.1322,-92.0403,100.6,21.4,11111222
Anadarko,ioos:station:wmo:42398:1,2021-02-04T05:45:00Z,26.1322,-92.0403,100.6,21.4,11111222
Anadarko,ioos:station:wmo:42398:1,2021-02-04T06:05:00Z,26.1322,-92.0403,100.6,21.4,11111222
Anadarko,ioos:station:wmo:42398:1,2021-02-04T06:24:00Z,26.1322,-92.0403,100.6,21.4,11111222
Anadarko,ioos:station:wmo:42398:1,2021-02-04T06:43:00Z,26.1322,-92.0403,100.6,21.4,11111222
Anadarko,ioos:station:wmo:42398:1,2021-02-04T07:03:00Z,26.1322,-92.0403,100.6,21.4,11111222
Anadarko,ioos:station:wmo:42398:1,2021-02-04T07:23:00Z,26.1322,-92.0403,100.6,21.4,11111222
Anadarko,ioos:station:wmo:42398:1,2021-02-04T07:43:00Z,26.1322,-92.0403,100.6,21.4,11111222
Anadarko,ioos:station:wmo:42398:1,2021-02-04T08:03:00Z,26.1322,-92.0403,100.6,21.4,11111222
Anadarko,ioos:station:wmo:42398:1,2021-02-04T08:23:00Z,26.1322,-92.0403,100.6,21.3,11111222
Anadarko,ioos:station:wmo:42398:1,2021-02-04T08:43:00Z,26.1322,-92.0403,100.6,21.2,11111222
Anadarko,ioos:station:wmo:42398:1,2021-02-04T09:03:00Z,26.1322,-92.0403,100.6,21.2,11111222
Anadarko,ioos:station:wmo:42398:1,2021-02-04T09:22:00Z,26.1322,-92.0403,100.6,21.1,11111222
Anadarko,ioos:station:wmo:42398:1,2021-02-04T09:42:00Z,26.1322,-92.0403,100.6,21.1,11111222
Anadarko,ioos:station:wmo:42398:1,2021-02-04T10:02:00Z,26.1322,-92.0403,100.6,21.1,11111222
Anadarko,ioos:station:wmo:42398:1,2021-02-04T10:21:00Z,26.1322,-92.0403,100.6,21.1,11111222
Anadarko,ioos:station:wmo:42398:1,2021-02-04T10:40:00Z,26.1322,-92.0403,100.6,21.1,11111222
Anadarko,ioos:station:wmo:42398:1,2021-02-04T11:00:00Z,26.1322,-92.0403,100.6,21.1,11111222
Anadarko,ioos:station:wmo:42398:1,2021-02-04T11:20:00Z,26.1322,-92.0403,100.6,21.1,11111222
Anadarko,ioos:station:wmo:42398:1,2021-02-04T11:40:00Z,26.1322,-92.0403,100.6,21.1,11111222
Anadarko,ioos:station:wmo:42398:1,2021-02-04T12:00:00Z,26.1322,-92.0403,100.6,21.2,11111222
Anadarko,ioos:station:wmo:42398:1,2021-02-04T12:20:00Z,26.1322,-92.0403,100.6,21.2,11111222
Anadarko,ioos:station:wmo:42398:1,2021-02-04T12:40:00Z,26.1322,-92.0403,100.6,21.2,11111222
Anadarko,ioos:station:wmo:42398:1,2021-02-04T13:00:00Z,26.1322,-92.0403,100.6,21.1,11111222